Terminal Aerodrome Forecast
Issued by NWS San Angelo, TX

Home | Current Version | Previous Version | Text Only | Print | Product List | Glossary On
Versions: 1 2 3 4 5 6 7 8 9 10 11 12 13 14 15 16
000
FTUS44 KSJT 061720
TAFABI
TAF
KABI 061720Z 0618/0718 15012G20KT P6SM FEW120
     FM070100 16011KT P6SM SCT250
     FM071500 17017G25KT P6SM SCT150=

USA.gov is the U.S. government's official web portal to all federal, state and local government web resources and services.